User: anonymous   Login
Location: Fort Wayne
(41.1310°N, 85.1290°W)
Time: 21:39:36
(UTC-04:00)
Language:

Cosmos 1953 - Orbit

View from above orbital plane
View from above orbital plane
View from above satellite
View from above satellite

Ground track
Ground track

The orbit data is extracted from the following two-line orbital elements,

1 19210U 88050A   16126.33712689  .00000887  00000-0  60840-4 0  9994
2 19210  82.5189  68.6502 0012903 205.1304 154.9297 15.04738332516493
Epoch (UTC): 05 May 2016 08:05:27
Eccentricity: 0.0012903
inclination: 82.5189°
perigee height: 543 km
apogee height: 561 km
right ascension of ascending node: 68.6502°
argument of perigee: 205.1304°
revolutions per day: 15.04738332
mean anomaly at epoch: 154.9297°
orbit number at epoch: 51649

The dashed part of the orbit path shows where the satellite is in the earth's shadow,  

DLR